Weather in Longyan

China     25°04′37″N   117°01′25″E
temp.,
°C
wind,
m/s
gust,
m/s
humid.,
%
clouds,
%
prec.,
mm/h
press.,
hPa
HPBL,
m
18 january, mon
mon1823:00+5nne228341 0.0 102863
02:00+4nne128754 0.0 102725
05:00+3n128843 0.0 102833
08:00+4nne227732 0.0 1027128
11:00+12n223890 0.0 1026767
14:00+16ne223085 0.0 10221314
17:00+13ne233791 0.0 1022201
20:00+7ne224776 0.0 102423
19 january, tue
tue1923:00+5e115214 0.0 102423
02:00+3ene11647 0.0 102422
05:00+3ene11659 0.0 102422
08:00+4ne12555 0.0 102568
11:00+16ene12270 0.0 1023776
14:00+19se22250 0.0 10201298
17:00+14se24380 0.0 1019307
20:00+8ese22630 0.0 102125
20 january, wed
wed2023:00+6e12840 0.0 102322
02:00+5ene11880 0.0 102223
05:00+5ne12860 0.0 102125
08:00+7ne22760 0.0 102371
11:00+19ne014515 0.0 1022503
14:00+22sw134413 0.0 10181376
17:00+20wsw12568 0.0 1016103
20:00+13ese11809 0.0 101823
21 january, thu
thu2123:00+14e117633 0.0 101924
02:00+13nne117662 0.0 101824
05:00+13nne227786 0.0 101769
08:00+14nne127687 0.0 101955
11:00+22nne124667 0.0 1018489
14:00+26wnw123935 0.0 10151721
17:00+22n125374 0.0 101450
20:00+16e117174 0.0 101523
22 january, fri
fri2223:00+17nne126978 0.0 101667
02:00+14ne127564 0.0 101525
05:00+13ne12837 0.0 101523
08:00+14nne227719 0.0 101678
11:00+16e017399 0.0 101680
14:00+24nnw014677 0.0 1013949
17:00+20nne115854 0.0 1012319
20:00+17e117077 0.0 101424